CZ-3B DEB, 40183

Orbit data source: Space-Track

CZ-3B DEB, 40183 is space debris in HEO originally from a launch on Mon, 19 Dec 2011 UTC launched from the Xichang Space Center, China (XSC). Debris objects in space refer to the collection of defunct objects orbiting the Earth. Examples of debris include non-operational satellites, rocket bodies, and fragments generated from explosions, collisions, or faulty payload assembly.

Loading next visibility...
Identifier
40183, 2011-077G
Orbit
HEO
Country
Flag of CNCN / PRC
Related business
Manufacturer
CALT
Mission
Spacecraft
Bus & Motor
Unknown
Mass
Unknown
Launch date (UTC)
2011-12-19 (14 years ago)
Launch vehicle
Unknown
Launch site
Xichang Space Center, China (XSC)
Object type
Payload
Rocket body
Debris
Shape & HBR
Unknown shape, 0.1 m
Radar Cross Section
Medium (>0.1 m² and <1 m²)

Expand to show TLE details & history
Last TLE update: 3 days ago

TLE from 3 days ago
0 CZ-3B DEB
1 40183U 11077G   26032.80131130 -.00000068  00000-0  10453-2 0  9992
2 40183  21.9440 318.9345 7530349 244.3696  23.8199  1.85754364 78758
Epoch: 2026-02-01T19:13Z
TLE epoch observation values (Epoch: 2026-02-01T19:13:53.296Z)
Latitude
0.00075°
Longitude
-101.4264°
Altitude
11,703.454 km
Speed
5.461 km/s
True Right ascension
21h 16m 12s
True Declination
0° 00' 03"
Sunlit
Object was in daylight at epoch
Visualization orbit readout
Latitude
Unknown
Longitude
Unknown
Altitude
Unknown
Speed
Unknown
Apparent Right ascension
Unknown
Apparent Declination
Unknown
Sunlit
N/A
Visualization observer readout
Local Sidereal Time
06:07:52
Azimuth
Unknown
Elevation
Unknown
Doppler factor
Unknown
Orbital elements
Apogee altitude
42,633.73 km
Perigee altitude
526.586 km
Semi-major axis
27,958.295 km
Eccentricity
0.75303
Inclination
21.944°
RAAN
318.9345°
Arg. of periapsis
244.3696°
True anomaly
115.883°
Mean anomaly
23.8199°
Eccentric anomaly
61.86884°
Mean motion
0.46428 °/min
Orbital period
775.4 mins
BSTAR
0.0010453
Loading maneuver chart data...
Computing Atmospheric mass density...
Loading historical data...
Loading historical data...
Loading historical data...
Loading historical data...
Loading historical data...
Loading historical data...
Loading historical data...

Documentation

Showing up to 5 results
|